STARLINK-32631 (62235 NORAD) Tracking and Keplerian Element Data

This shows tracking and keplerian element data for the satellite.

Feedback or suggestion? Click here.




ElementValue
Catalog62235
NameSTARLINK-32631
Epoch Orbit1061
Epoch Day34.93502965
Epoch Year2025
RAAN276.3262
Inclination53.1585
Eccentricity0.0001217
Argument of Perigee86.0458
Mean Anonmoly274.0686
Mean Motion15.39571746
Decay Rate-0.00012362
L11 62235U 24231T 25034.93502965 -.00012362 00000+0 -30004-3 0 9998
L22 62235 53.1585 276.3262 0001217 86.0458 274.0686 15.39571746 10616



Live tracking and technical data element details for STARLINK-32631 (NORAD 62235). STARLINK-32631 can be tracked NOW for your location showing map with azimuth and elevation plus other details from your city location.







IsCatalogInMostPopularTable: catalog: 62235, numindb: 33
Update: records affected: 1



GetName: 62235 STARLINK-32631

Hit Count: updated at: Sun, 18 May 2025 23:52:08 GMT